Weather History for Johnstown, PA

Change the Weather History Date:

Wednesday, November 6, 2013

  Actual Average Record
Temperature  
Mean Temperature 52 °F 44 °F  
Max Temperature 66 °F 50 °F 80 °F (1938)
Min Temperature 38 °F 37 °F 22 °F (1955)
Degree Days  
Heating Degree Days 13 21  
Month to date heating degree days 137 123  
Since 1 July heating degree days 846 816  
Cooling Degree Days 0 0  
Month to date cooling degree days 0 0  
Year to date cooling degree days 393 382  
Growing Degree Days 2 (Base 50)    
Moisture  
Dew Point 42 °F    
Average Humidity 68    
Maximum Humidity 93    
Minimum Humidity 42    
Precipitation  
Precipitation 0.00 in 0.13 in 0.92 in (1911)
Month to date precipitation 0.28 0.74  
Year to date precipitation 31.93 28.09  
Sea Level Pressure  
Sea Level Pressure 30.19 in    
Wind  
Wind Speed 11 mph (South)    
Max Wind Speed 18 mph    
Max Gust Speed 25 mph    
Visibility 10 miles    
Events      
T = Trace of Precipitation, MM = Missing Value Source: NWS Daily Summary

Daily Weather History Graph

Daily Weather History Graph

Search for Another Location

Airport:

Trip Planner

Search our weather history database for the weather conditions in past years. The results will help you decide how hot, cold, wet, or windy it might be!

Date:

Astronomy

Nov. 06, 2013 Rise Set
Actual Time 6:50 AM EST 5:06 PM EST
Civil Twilight 6:22 AM EST 5:34 PM EST
Nautical Twilight 5:50 AM EST 6:07 PM EST
Astronomical Twilight 5:18 AM EST 6:39 PM EST
Moon 10:04 AM EST (11/6) 8:08 PM EST (11/6)
Length of Visible Light 11h 12m
Length of Day
10h 15m
Waxing Crescent, 13% of the Moon is Illuminated
Nov 6
Waxing Crescent
Nov 10
First Quarter
Nov 17
Full
Nov 25
Last Quarter
Dec 2
New

Hourly Weather History & Observations

Time (EST) Temp. Windchill Dew Point Humidity Pressure Visibility Wind Dir Wind Speed Gust Speed Precip Events Conditions
12:54 AM 39.9 °F 35.8 °F 35.1 °F 83% 30.40 in 10.0 mi SSW 5.8 mph - N/A   Clear
1:54 AM 39.9 °F 35.1 °F 36.0 °F 86% 30.39 in 10.0 mi South 6.9 mph - N/A   Clear
2:54 AM 39.9 °F 34.5 °F 36.0 °F 86% 30.35 in 10.0 mi South 8.1 mph - N/A   Clear
3:54 AM 39.9 °F 35.1 °F 37.0 °F 89% 30.34 in 10.0 mi South 6.9 mph - N/A   Clear
4:54 AM 39.9 °F 36.7 °F 37.0 °F 89% 30.33 in 10.0 mi South 4.6 mph - N/A   Clear
5:54 AM 37.9 °F 34.4 °F 36.0 °F 93% 30.33 in 10.0 mi South 4.6 mph - N/A   Clear
6:54 AM 41.0 °F 36.4 °F 39.0 °F 93% 30.32 in 10.0 mi South 6.9 mph - N/A   Clear
7:54 AM 45.0 °F 41.8 °F 42.1 °F 90% 30.31 in 10.0 mi South 5.8 mph - N/A   Clear
8:54 AM 48.9 °F - 43.0 °F 80% 30.30 in 10.0 mi South 9.2 mph - N/A   Clear
9:54 AM 53.1 °F - 43.0 °F 69% 30.27 in 10.0 mi South 8.1 mph - N/A   Clear
10:54 AM 57.0 °F - 43.0 °F 59% 30.25 in 10.0 mi SSW 10.4 mph 17.3 mph N/A   Clear
11:54 AM 61.0 °F - 44.1 °F 54% 30.22 in 10.0 mi SW 13.8 mph 19.6 mph N/A   Clear
12:54 PM 63.0 °F - 44.1 °F 50% 30.18 in 10.0 mi South 17.3 mph 23.0 mph N/A   Clear
1:54 PM 64.9 °F - 43.0 °F 45% 30.14 in 10.0 mi SSW 12.7 mph 21.9 mph N/A   Partly Cloudy
2:54 PM 66.0 °F - 43.0 °F 43% 30.12 in 10.0 mi SSW 16.1 mph 23.0 mph N/A   Partly Cloudy
3:54 PM 60.1 °F - 43.0 °F 53% 30.10 in 10.0 mi SSE 16.1 mph - N/A   Mostly Cloudy
4:54 PM 59.0 °F - 45.0 °F 60% 30.09 in 10.0 mi SSE 15.0 mph 24.2 mph N/A   Mostly Cloudy
5:54 PM 57.9 °F - 46.0 °F 65% 30.08 in 10.0 mi SSE 15.0 mph 21.9 mph N/A   Mostly Cloudy
6:54 PM 57.9 °F - 45.0 °F 62% 30.06 in 10.0 mi South 12.7 mph 19.6 mph N/A   Mostly Cloudy
7:54 PM 57.0 °F - 45.0 °F 64% 30.04 in 10.0 mi South 10.4 mph - N/A   Overcast
8:54 PM 57.9 °F - 45.0 °F 62% 30.01 in 10.0 mi South 15.0 mph - N/A   Overcast
9:54 PM 57.9 °F - 45.0 °F 62% 29.98 in 10.0 mi South 13.8 mph 21.9 mph N/A   Overcast
10:54 PM 59.0 °F - 45.0 °F 60% 29.96 in 10.0 mi SSW 9.2 mph - N/A   Overcast
11:54 PM 57.9 °F - 45.0 °F 62% 29.94 in 10.0 mi SSW 8.1 mph - N/A   Overcast